Location: Unspecified
(0.0000°N, 0.0000°E)
Time: 13:29:23
(UTC+00:00)

deb Explorer IX - All Passes

Search period start: 21 February 2019 00:00
Search period end: 03 March 2019 00:00
Orbit: 536 x 1116 km, 38.8° (Epoch: 18 February)

Date Brightness Start Highest point End Pass type
(mag) Time Alt. Az. Time Alt. Az. Time Alt. Az.
21 Feb - 00:39:03 10° WSW 00:41:10 14° SW 00:43:21 10° S night (unlit)
21 Feb - 09:43:35 10° SSW 09:49:56 32° SE 09:56:19 10° E daylight
21 Feb - 11:30:14 10° WSW 11:37:29 58° NW 11:44:28 10° NE daylight
21 Feb - 13:23:07 10° NW 13:25:10 11° NW 13:27:10 10° NNW daylight
21 Feb - 22:28:45 10° NW 22:32:42 53° NE 22:36:41 10° ESE night (unlit)
22 Feb - 00:17:43 10° WSW 00:19:32 13° SW 00:21:24 10° S night (unlit)
22 Feb - 09:21:45 10° SSW 09:28:04 33° SE 09:34:31 10° ENE daylight
22 Feb - 11:08:24 10° WSW 11:15:36 56° NW 11:22:39 10° NE daylight
22 Feb - 13:01:24 10° NW 13:03:21 11° NW 13:05:18 10° NNW daylight
22 Feb - 22:07:05 10° NW 22:11:07 57° NE 22:15:05 10° ESE night (unlit)
22 Feb - 23:56:26 10° WSW 23:57:54 12° SW 23:59:24 10° SSW night (unlit)
23 Feb - 08:59:55 10° SSW 09:06:12 33° SE 09:12:42 10° ENE daylight
23 Feb - 10:46:35 10° WSW 10:53:43 55° NW 11:00:49 10° NE daylight
23 Feb - 12:39:43 10° NW 12:41:32 11° NW 12:43:21 10° NNW daylight
23 Feb - 21:45:23 10° NW 21:49:30 61° NE 21:53:29 10° ESE night (unlit)
23 Feb - 23:35:12 10° SW 23:36:17 11° SW 23:37:23 10° SSW night (unlit)
24 Feb - 08:38:07 10° SSW 08:44:19 34° SE 08:50:53 10° ENE daylight
24 Feb - 10:24:47 10° WSW 10:31:50 53° NW 10:38:57 10° NE daylight
24 Feb - 12:18:06 10° NW 12:19:44 11° NW 12:21:21 10° NNW daylight
24 Feb - 21:23:41 10° NW 21:27:54 65° NE 21:31:54 10° ESE night (unlit)
24 Feb - 23:14:09 10° SW 23:14:39 10° SW 23:15:09 10° SSW night (unlit)
25 Feb - 08:16:21 10° SSW 08:22:28 35° SE 08:29:01 10° ENE daylight
25 Feb - 10:03:01 10° WSW 10:09:57 52° NW 10:17:05 10° NNE daylight
25 Feb - 11:56:36 10° NW 11:57:55 10° NW 11:59:14 10° NNW daylight
25 Feb - 21:01:57 10° NW 21:06:18 69° NE 21:10:19 10° SE night (unlit)
26 Feb - 07:54:35 10° SSW 08:00:37 35° SE 08:07:09 10° ENE daylight
26 Feb - 09:41:16 10° WSW 09:48:04 50° NW 09:55:11 10° NNE daylight
26 Feb - 11:35:19 10° NW 11:36:06 10° NW 11:36:53 10° NNW daylight
26 Feb - 20:40:12 10° NW 20:44:41 74° NE 20:48:45 10° SE visible
27 Feb - 07:32:51 10° SSW 07:38:46 36° SE 07:45:17 10° ENE daylight
27 Feb - 09:19:31 10° WSW 09:26:12 48° NW 09:33:16 10° NNE daylight
27 Feb - 20:18:26 10° NW 20:23:04 78° NE 20:27:12 10° SE visible
28 Feb - 07:11:08 10° SSW 07:16:56 36° SE 07:23:23 10° ENE daylight
28 Feb - 08:57:49 10° WSW 09:04:19 46° NW 09:11:20 10° NNE daylight
28 Feb - 19:56:39 10° NW 20:01:26 82° NE 20:05:38 10° SE visible
01 Mar - 06:49:25 10° SSW 06:55:07 37° SE 07:01:29 10° ENE daylight
01 Mar - 08:36:08 10° WSW 08:42:28 45° NW 08:49:23 10° NNE daylight
01 Mar - 17:50:55 10° NNE 17:52:26 11° NNE 17:53:54 10° NE daylight
01 Mar - 19:34:51 10° NW 19:39:48 87° NE 19:44:06 10° SE visible
02 Mar - 06:27:45 10° SSW 06:33:18 37° SE 06:39:35 10° ENE daylight
02 Mar - 08:14:28 10° WSW 08:20:38 43° NW 08:27:25 10° NNE daylight
02 Mar - 17:28:33 10° N 17:30:46 12° NE 17:32:51 10° ENE daylight
02 Mar - 19:13:01 10° NW 19:18:09 89° SW 19:22:33 10° SE visible
